Showing default

DASH/VEP 3, 27368

Orbit data source: Space-Track

DASH/VEP 3, 27368 is a payload satellite owned by NASDA (JP) in HEO that was launched on Mon, 04 Feb 2002 UTC via an H-IIA 2024 launch vehicle from the Tanegashima Space Center (TNSTA). Payload-class satellites include a variety of spacecraft equipped with specific instruments for various scientific and technological missions. These include communications satellites like Starlink; space stations such as the ISS; scientific satellites like the Hubble; Earth observation satellites from companies like Planet Labs, Umbra, and HawkEye 360; GPS; miniature CubeSats for education and research; and military/defense satellites.

Not visible in the next 10 days
Identifier
27368, 2002-003B
Orbit
HEO
Last TLE update
1 day ago
Origin
Manufacturer
NASDA?
Mission
Civil Technology
Bus & Motor
VEP, Unknown motor
Mass
~330 kg wet, ~330 kg dry
Launch date (UTC)
2002-02-04 (23 years ago)
Launch vehicle
H-IIA 2024
Launch site
Tanegashima Space Center (TNSTA)
Object type
Payload
Rocket body
Debris
Shape & HBR
Hex Cyl, Unknown HBR
Radar Cross Section
0.344 m², Large (>1 m²)

Expand to show TLE details & history

TLE from 1 day ago
0 DASH/VEP 3
1 27368U 02003B   25128.16134637  .00001180  00000-0  33534-2 0  9990
2 27368  29.0719  38.1336 7150171  67.3498 350.1529  2.36392721196421
Epoch: 2025-05-08T03:52Z
Definitive object data (Epoch: 2025-05-08T03:52:20.326Z)
Latitude
-0.00002°
Longitude
113.79039°
Altitude
2,747.2 km
Speed
8.403 km/s
True Right ascension
02h 32m 26s
True Declination
0° 00' 00"
Sunlit
Object was in daylight at TLE epoch
Visualization TLE readout
Latitude
-27.06198°
Longitude
0.05759°
Altitude
34,410.288 km
Speed
1.674 km/s
Apparent Right ascension
19h 28m 22s
Apparent Declination
-32° 28' 17"
Sunlit
Object is in daylight
Visualization observer readout
Local Sidereal Time
13:50:16
Azimuth
118.892° SE
Elevation
-16.423°
Doppler factor
1
Orbital elements
Apogee altitude
34,451.762 km
Perigee altitude
406.532 km
Semi-major axis
23,807.284 km
Eccentricity
0.7150171
Inclination
29.0719°
RAAN
38.1336°
Arg. of periapsis
67.3498°
True anomaly
291.79181°
Mean anomaly
350.1529°
Eccentric anomaly
329.13732°
Mean motion
0.59085 °/min
BSTAR
0.0033534
Orbital period
609.29 mins
Loading maneuver chart data...
Loading SW <> Apogee altitude chart data...
Loading historical data...
Loading historical data...
Loading historical data...
Loading historical data...
Loading historical data...
Loading historical data...
Loading historical data...
Other satellites on launch #3 in the year 2002 (2002-02-04 UTC)

DASH/VEP 3 Visibility forecast

Observer location: undefined°, undefined°

DASH/VEP 3 is not visible in the next 10 days
Span
Click to sort rows by Start time (UTC) header in descending order
Start Az.
Max El. time (UTC)
Max El. Az.
Max El.
End time (UTC)
End Az.
|